Voltar ao catálogo

SATORO-T3

AtivoCiênciaSSO
NORAD 64589·PAYLOAD·🇸🇬 Singapore

Lançado Jun 23, 2025 de Vandenberg Space Force Base

Loading…

Próximas Passagens (próximas 24 horas)

TLE

AtualizadoSource: Space-Track

Época: Sep 14, 2026, 13:05 UTC

1 64589U 25135BP  26257.54544803  .00003203  00000-0  30030-3 0  9990
2 64589  97.7793  11.2141 0005826  47.6558 312.5155 14.94715011 67257

Acompanhe SATORO-T3 em tempo real com AllMySat

Download on the App Store